NUSAT-22 (SOFYA) (48919 NORAD) Tracking and Keplerian Element Data

This shows tracking and keplerian element data for the satellite.

Feedback or suggestion? Click here.




ElementValue
Catalog48919
NameNUSAT-22 (SOFYA)
Epoch Orbit1400
Epoch Day269.12184293
Epoch Year2021
RAAN36.771
Inclination97.3943
Eccentricity0.001686
Argument of Perigee265.8024
Mean Anonmoly213.4313
Mean Motion15.26651818
Decay Rate3.04E-05
L11 48919U 21059AS 21269.12184293 .00003040 00000-0 11833-3 0 9994
L22 48919 97.3943 36.7710 0016860 265.8024 213.4313 15.26651818 14005

Live tracking and technical data element details for NUSAT-22 (SOFYA) (NORAD 48919). NUSAT-22 (SOFYA) can be tracked NOW for your location showing map with azimuth and elevation plus other details from your city location.

Track the satellite on the map from your city or location and see movement details for azimuth, elevation, latitude, longitude, range, height, and movement on the map or in text.







IsCatalogInMostPopularTable: catalog: 48919, numindb: 15
Update: records affected: 1



GetName: 48919 NUSAT-22 (SOFYA)

Hit Count: updated at: Sun, 26 Sep 2021 16:52:21 GMT